Imperial, CA

7:10 AM PST on December 18, 2017 (GMT -0800)
Imperial County

Weather History for KIPL - September, 2012

Change the Weather History Date:

Monday, September 24, 2012

  Actual Average Record
Temperature  
Mean Temperature 91 °F -  
Max Temperature 106 °F 97 °F 111 °F (2002)
Min Temperature 77 °F 68 °F 59 °F (2004)
Cooling Degree Days 26    
Growing Degree Days 41 (Base 50)    
Moisture  
Dew Point 44 °F    
Average Humidity 22    
Maximum Humidity 33    
Minimum Humidity 11    
Precipitation  
Precipitation 0.00 in - - ()
Sea Level Pressure  
Sea Level Pressure 29.80 in    
Wind  
Wind Speed 8 mph (West)    
Max Wind Speed 17 mph    
Max Gust Speed 26 mph    
Visibility 10 miles    
Events      
Averages and records for this station are not official NWS values.
T = Trace of Precipitation, MM = Missing Value Source: NWS Daily Summary

Daily Weather History Graph

Daily Weather History Graph

Search for Another Location

Airport or City:

Trip Planner

Search our weather history database for the weather conditions in past years. The results will help you decide how hot, cold, wet, or windy it might be!

Date:

Astronomy

Sep. 24, 2012 Rise Set
Actual Time 6:32 AM PDT 6:35 PM PDT
Civil Twilight 6:07 AM PDT 7:00 PM PDT
Nautical Twilight 5:38 AM PDT 7:28 PM PDT
Astronomical Twilight 5:09 AM PDT 7:57 PM PDT
Moon 3:10 PM PDT (9/24) 1:08 AM PDT (9/24)
Length of Visible Light 12h 52m
Length of Day
12h 03m
Waxing Gibbous, 71% of the Moon is Illuminated
Sep 24
Waxing Gibbous
Sep 29
Full
Oct 8
Last Quarter
Oct 15
New
Oct 21
First Quarter

Hourly Weather History & Observations

Time (PDT) Temp. Dew Point Humidity Pressure Visibility Wind Dir Wind Speed Gust Speed Precip Events Conditions
12:53 AM 89.6 °F 39.2 °F 17% 29.81 in 10.0 mi WNW 8.1 mph - N/A   Clear
1:53 AM 82.9 °F 44.1 °F 25% 29.82 in 10.0 mi WSW 9.2 mph - N/A   Clear
2:53 AM 82.9 °F 42.1 °F 24% 29.81 in 10.0 mi West 9.2 mph - N/A   Clear
3:53 AM 80.1 °F 44.1 °F 28% 29.81 in 10.0 mi West 5.8 mph - N/A   Clear
4:53 AM 77.0 °F 46.0 °F 33% 29.82 in 10.0 mi WSW 6.9 mph - N/A   Clear
5:53 AM 80.1 °F 43.0 °F 27% 29.83 in 10.0 mi WSW 6.9 mph - N/A   Clear
6:53 AM 77.0 °F 46.0 °F 33% 29.85 in 10.0 mi West 5.8 mph - N/A   Clear
7:53 AM 82.9 °F 48.0 °F 29% 29.86 in 10.0 mi Calm Calm - N/A   Clear
8:53 AM 91.0 °F 46.9 °F 22% 29.88 in 10.0 mi West 5.8 mph - N/A   Clear
9:53 AM 96.1 °F 45.0 °F 17% 29.88 in 10.0 mi West 8.1 mph - N/A   Clear
10:53 AM 98.1 °F 39.9 °F 13% 29.86 in 10.0 mi WNW 6.9 mph - N/A   Clear
11:53 AM 100.0 °F 37.0 °F 11% 29.84 in 10.0 mi Calm Calm - N/A   Clear
12:53 PM 102.0 °F 39.0 °F 11% 29.81 in 10.0 mi SSW 5.8 mph - N/A   Clear
1:53 PM 104.0 °F 39.0 °F 11% 29.77 in 10.0 mi WNW 6.9 mph - N/A   Clear
2:53 PM 105.1 °F 39.9 °F 11% 29.75 in 10.0 mi WSW 11.5 mph 16.1 mph N/A   Clear
3:53 PM 105.1 °F 43.0 °F 12% 29.73 in 10.0 mi West 17.3 mph 24.2 mph N/A   Partly Cloudy
4:53 PM 102.0 °F 41.0 °F 12% 29.73 in 10.0 mi West 16.1 mph 26.5 mph N/A   Clear
5:53 PM 99.0 °F 46.0 °F 16% 29.73 in 10.0 mi West 13.8 mph 21.9 mph N/A   Clear
6:53 PM 91.9 °F 46.0 °F 21% 29.74 in 10.0 mi West 9.2 mph - N/A   Clear
7:53 PM 91.0 °F 46.0 °F 21% 29.75 in 10.0 mi West 16.1 mph - N/A   Clear
8:53 PM 86.0 °F 51.1 °F 30% 29.76 in 10.0 mi West 11.5 mph - N/A   Clear
9:53 PM 86.0 °F 50.0 °F 29% 29.78 in 10.0 mi WSW 12.7 mph - N/A   Clear
10:53 PM 82.9 °F 51.1 °F 33% 29.78 in 10.0 mi WSW 10.4 mph - N/A   Clear
11:53 PM 82.9 °F 50.0 °F 32% 29.78 in 10.0 mi WSW 12.7 mph - N/A   Clear